Weather in Yuzhny

Russia / Republic of Kalmykia     46°06′03″N   42°01′11″E
temp.,
°C
wind,
m/s
gust,
m/s
humid.,
%
clouds,
%
prec.,
mm/h
press.,
hPa
HPBL,
m
20 april, tue
tue2000:00+11s2396100 0.0 101340
03:00+12ese2397100 1.8 101177
06:00+12e71398100 6.5 1008377
09:00+16ese91778100 6.5 1006800
12:00+18se8116661 0.2 1005755
15:00+21w456786 0.3 1006933
18:00+16w6108188 0.1 1009507
21:00+13sw51190100 0.3 1011267
21 april, wed
wed2100:00+12sw51173100 0.2 1012411
03:00+11wsw71377100 0.3 1015883
06:00+10wsw51285100 0.2 1016936
09:00+11wsw587762 0.2 1018872
12:00+15w566198 0.0 10181413
15:00+15w465864 0.1 10191555
18:00+14w346839 0.0 1020237
21:00+10sw22746 0.0 102111
22 april, thu
thu2200:00+10sw1176100 0.0 102110
03:00+9ese0180100 0.0 102110
06:00+9ene1182100 0.0 102211
09:00+13ese2270100 0.0 1023457
12:00+14se4471100 0.0 1023731
15:00+15se4573100 0.0 1022757
18:00+14se2280100 0.0 1022112
21:00+11se3487100 0.0 102371
23 april, fri
fri2300:00+11se2284100 0.1 102225
03:00+10w1193100 0.6 102210
06:00+10nnw2394100 0.3 102398
09:00+13ese228298 1.8 1023450
12:00+16ssw126725 1.3 1022916
15:00+17w226097 3.8 10211178
18:00+16w11690 0.9 102062
21:00+12w117830 0.9 102011
24 april, sat
sat2400:00+11s1181100 0.0 101910
03:00+11sw2285100 0.0 101826
06:00+11sw338690 0.0 101950
09:00+15wsw347176 0.6 1018378
12:00+18wsw685212 1.1 10181778
15:00+19wsw7104717 1.1 10172421
18:00+15w596979 0.1 1018428
21:00+12w368699 0.2 1020131